RH
3 3 2 2 1 1 1 1 1 3 4 3 2 1 2 2 5 7 17 36 31 25 26 24 26 28 29 28 28 28 28 38 44 49 55 53 55 59 62 61 57 57 54 56 57 58 59 52 50 50 49 46 46 45 46 52 52 54 59 61 56 41 35 38 36 31 26 23 21 22 29 33 27 24 21 22 21 15 7 0 2 2 2 7 11 13 13 24 34 43 41 15 4 9 7 9 17
4 4 3 3 2 2 1 1 2 3 5 4 3 2 3 4 6 8 14 31 38 35 33 29 29 32 36 38 39 40 42 50 54 51 53 53 51 54 58 60 60 61 57 56 60 61 60 54 50 50 51 49 48 46 47 52 51 53 58 63 64 54 45 43 45 43 38 33 28 29 38 51 54 48 40 43 45 33 21 7 2 3 5 7 10 11 6 16 30 36 39 19 4 8 8 8 14
6 5 5 3 3 2 1 2 2 2 2 3 4 2 4 6 7 8 10 21 33 40 40 35 36 43 47 49 50 52 55 55 56 53 52 52 52 55 55 58 61 61 57 55 60 60 60 57 50 48 50 50 49 48 49 51 49 52 57 62 66 65 60 55 52 52 53 50 45 40 36 42 56 65 58 62 66 52 38 26 14 7 10 13 11 9 0 7 21 25 30 18 5 7 8 7 11
7 6 6 4 3 2 2 2 3 2 2 3 5 5 5 7 11 10 11 17 21 33 42 38 40 49 55 56 54 55 56 54 55 55 56 56 56 60 58 58 59 58 56 53 56 56 55 53 48 45 44 47 48 48 48 49 49 50 54 59 62 65 67 67 65 63 63 63 61 56 51 42 45 65 66 66 67 60 55 42 32 21 14 14 8 6 1 3 12 14 20 16 5 6 8 7 9
7 7 6 5 4 3 3 2 3 2 3 5 6 11 12 14 20 17 17 18 17 32 42 38 42 45 49 51 47 48 51 53 55 56 62 60 56 60 60 60 58 56 53 51 52 50 50 52 51 45 40 40 42 47 47 47 50 49 52 57 59 60 64 68 69 68 65 67 69 64 65 51 42 60 61 63 61 58 66 52 42 38 29 27 16 9 5 4 9 10 15 13 5 6 8 8 7
7 7 6 6 4 4 5 3 3 2 4 5 11 22 29 31 32 30 26 20 23 40 44 41 42 38 37 38 37 39 42 48 46 46 58 59 56 58 59 60 58 54 51 50 50 49 49 52 53 47 40 37 39 47 48 47 49 50 51 54 57 57 59 63 65 67 65 69 76 72 69 57 53 65 57 61 65 58 70 58 39 42 48 49 35 22 12 7 10 10 14 12 4 6 7 8 8
7 6 6 5 4 6 6 4 3 3 5 5 22 37 38 42 44 47 41 32 37 46 45 41 38 32 30 28 31 31 28 34 33 35 47 51 54 56 55 57 55 50 48 48 48 48 47 47 47 45 41 39 41 45 50 52 50 51 51 50 53 54 57 62 66 67 66 69 79 81 76 72 72 77 66 62 67 62 63 51 36 42 52 56 52 42 27 13 10 10 12 12 4 4 8 7 7
7 6 5 5 4 6 6 5 4 5 7 4 26 43 36 42 48 54 54 48 49 48 43 37 33 31 28 26 29 30 25 25 26 32 37 42 53 53 48 51 50 45 44 46 46 45 43 41 41 40 38 37 37 39 48 51 50 53 52 52 51 54 59 66 70 66 69 75 83 89 87 85 81 80 80 74 74 69 59 47 40 46 50 53 55 53 46 27 9 8 11 10 6 3 7 8 7
6 6 4 5 3 5 5 5 5 5 8 2 20 39 34 37 41 46 55 56 53 47 40 34 34 33 29 26 27 30 27 24 23 27 29 38 50 47 43 45 43 43 42 41 44 45 44 43 43 40 36 35 35 38 42 46 53 56 56 58 57 61 66 72 74 67 75 85 89 96 96 91 87 85 86 86 87 85 73 53 41 42 45 50 53 52 55 44 16 5 9 9 8 4 5 9 7
6 6 4 5 4 5 4 4 6 6 9 4 11 33 34 30 29 29 39 52 53 47 39 35 37 33 30 25 22 26 26 23 23 22 23 31 37 35 36 35 35 40 40 39 43 46 46 48 49 46 44 43 41 43 43 46 54 56 57 59 66 73 79 79 71 67 73 84 91 94 99 96 91 90 86 89 93 96 91 71 54 47 45 46 46 50 52 52 31 5 5 9 10 8 4 8 8
6 6 5 7 6 5 5 4 6 6 8 5 5 20 27 21 19 17 26 45 51 48 42 37 37 31 26 22 20 24 22 21 22 19 18 21 23 24 27 28 31 36 37 39 44 49 51 53 54 53 54 52 50 52 51 52 55 58 60 61 71 72 73 71 55 55 66 82 90 84 92 96 90 89 84 85 88 94 93 79 63 48 47 41 30 39 41 45 44 15 4 7 12 13 4 7 9
6 6 5 8 7 5 6 6 7 6 6 5 4 8 13 14 11 10 22 40 46 45 42 39 37 30 23 21 21 22 21 19 19 18 16 16 16 17 22 27 31 34 35 39 46 50 52 54 56 57 56 56 57 58 58 58 59 63 64 65 70 62 57 54 45 52 63 76 81 77 85 87 85 86 82 82 87 89 80 70 63 54 55 45 21 21 23 30 45 29 7 5 12 15 7 7 9
6 6 6 8 9 8 8 9 9 7 6 9 12 8 6 10 8 8 22 36 40 39 39 39 36 29 24 22 22 22 21 19 18 19 20 20 17 14 16 21 25 30 34 36 39 38 42 48 51 53 53 53 53 53 56 61 66 70 71 70 65 55 50 45 48 57 57 64 69 71 78 81 82 78 77 80 78 69 56 55 61 67 67 51 25 13 11 15 37 39 13 5 13 14 9 7 9
7 7 8 9 9 10 11 11 10 9 11 15 17 12 5 5 5 10 23 30 34 36 36 39 35 30 27 23 22 22 20 19 18 20 21 21 21 16 13 16 18 22 26 23 22 20 25 33 36 41 44 46 45 47 54 64 76 81 78 74 63 48 38 36 50 57 51 59 68 69 73 77 76 72 78 77 65 52 43 48 59 67 65 50 28 13 12 10 33 46 17 5 13 12 10 7 8
8 8 9 10 9 10 12 12 12 14 16 16 16 13 8 5 6 14 22 23 27 34 35 38 37 32 29 24 24 23 21 20 18 19 20 20 20 17 11 12 12 12 13 11 11 11 14 19 23 30 34 37 39 43 51 64 80 90 84 72 59 42 35 39 52 61 56 57 65 70 74 69 66 76 83 72 66 62 48 44 54 60 54 49 33 22 23 16 35 50 20 6 12 11 9 8 8
10 9 10 12 10 11 11 10 15 18 17 16 15 13 11 9 11 15 21 22 25 33 35 36 35 31 29 27 29 28 25 21 19 19 19 18 16 13 9 9 9 9 9 9 10 10 12 14 17 21 26 32 37 40 45 57 73 87 87 67 47 37 42 44 41 53 55 51 60 70 74 63 63 80 78 70 68 66 56 41 42 45 43 46 36 30 31 23 38 47 23 9 9 9 7 7 8
10 11 13 14 12 11 11 11 17 18 16 16 15 14 13 11 14 18 20 24 28 30 33 36 34 30 27 28 30 31 29 23 20 20 18 18 16 12 10 9 10 10 11 11 11 11 12 13 14 17 22 28 33 37 41 52 63 74 76 57 40 31 38 42 38 49 46 43 60 68 70 65 67 77 73 73 66 52 53 51 41 37 41 44 34 28 24 20 33 41 27 12 7 8 6 6 9
12 13 14 15 13 11 11 15 18 17 16 17 17 16 15 13 15 18 20 25 30 28 26 30 33 29 27 27 26 28 31 25 20 20 19 20 18 13 11 11 12 12 12 12 11 11 11 11 12 14 18 23 27 34 43 51 59 64 59 45 40 36 39 44 42 47 38 38 59 66 70 71 71 78 73 68 64 51 50 60 54 40 41 45 37 25 12 11 23 31 25 11 5 6 5 6 8
13 15 15 13 11 11 13 18 18 17 17 17 18 18 18 16 14 16 20 23 26 24 20 26 32 28 26 26 23 27 30 25 21 21 20 19 18 15 12 14 14 13 13 11 11 11 11 11 10 12 14 18 23 32 44 52 58 60 49 34 33 39 41 42 42 42 33 34 52 64 73 73 68 70 70 65 66 62 56 60 57 45 42 42 40 25 7 9 16 22 19 9 5 5 4 5 7
15 16 14 10 10 12 15 19 18 17 18 17 19 20 20 20 17 17 19 19 18 17 20 27 30 25 24 25 24 27 29 26 23 23 21 19 19 17 15 16 16 15 13 11 12 12 12 11 9 10 11 13 17 26 37 46 50 51 43 26 25 39 40 34 42 47 38 37 47 59 68 69 66 60 56 63 69 64 58 61 56 47 43 41 40 25 12 14 12 15 15 8 6 4 4 4 6
17 16 12 11 12 12 17 21 18 17 18 16 19 21 22 23 22 22 20 20 19 20 25 26 24 22 22 24 25 27 29 26 23 22 21 21 21 20 19 19 18 16 14 13 13 13 13 11 10 9 10 11 12 18 24 30 34 35 32 21 22 40 41 37 47 49 45 54 55 52 57 59 60 55 47 53 63 62 58 64 60 48 42 41 37 24 20 21 15 14 12 9 8 6 5 4 5
18 15 13 14 14 13 18 21 17 17 17 17 18 20 24 23 24 28 25 23 24 24 23 21 20 21 20 22 25 26 27 25 23 23 22 22 23 23 21 20 19 16 15 14 14 14 14 11 10 9 10 10 10 12 14 17 20 19 20 18 18 24 29 43 53 46 53 75 70 52 52 54 53 54 47 45 55 60 56 57 56 47 38 32 28 23 22 23 20 17 14 12 11 10 8 5 4
16 15 14 14 14 16 19 19 17 17 16 18 17 18 25 24 23 26 23 23 25 22 18 19 21 20 19 22 22 22 22 21 22 22 22 23 25 25 22 19 17 17 16 15 15 14 14 12 10 9 10 10 10 11 11 12 13 12 13 14 16 14 14 33 43 42 58 77 68 51 48 48 48 50 46 46 54 59 61 61 58 48 35 27 26 27 26 27 28 24 21 17 12 13 12 9 6
16 15 15 14 16 17 18 17 17 17 16 18 17 18 24 22 22 20 17 21 23 18 17 20 21 17 18 20 18 18 18 20 21 22 23 24 26 27 26 22 18 19 19 17 17 15 14 12 10 10 10 11 11 11 12 11 12 12 12 10 12 14 9 16 27 35 51 63 56 46 45 47 47 49 52 61 62 59 63 68 69 55 37 33 36 38 35 30 33 34 34 30 20 14 12 12 9
16 15 16 17 18 17 17 17 17 17 16 18 18 18 20 18 18 18 17 20 18 16 16 17 17 15 15 17 16 16 18 21 21 21 22 23 24 27 27 23 19 21 23 20 20 18 15 12 10 11 10 12 11 11 12 11 12 11 11 11 14 27 32 30 30 27 30 43 52 47 46 53 54 54 63 77 78 68 63 67 75 63 41 37 40 46 46 34 32 38 43 46 39 24 13 12 11
18 18 19 19 19 18 17 17 17 17 16 17 17 17 17 16 16 17 18 18 17 16 15 15 15 14 15 16 16 17 19 21 21 21 22 22 22 23 24 23 21 24 25 24 22 20 16 12 10 11 11 12 11 12 12 11 12 10 10 10 13 37 58 58 51 41 28 24 39 47 45 46 48 55 67 81 90 84 72 69 75 68 53 49 46 51 59 54 48 48 48 52 53 43 25 13 10
20 19 20 18 18 17 17 17 17 17 17 17 17 17 17 16 16 16 16 16 16 16 15 15 15 15 15 15 17 20 22 24 23 23 22 22 22 23 24 24 25 25 24 24 23 20 16 12 12 12 13 13 12 12 12 12 11 10 11 9 11 27 49 64 66 60 49 32 28 37 42 40 36 48 66 79 94 96 83 74 73 71 65 63 58 58 65 70 69 66 63 61 61 57 42 23 11
20 18 18 16 16 16 16 16 17 17 17 17 17 17 16 16 16 15 16 15 15 15 15 16 15 16 16 16 20 23 26 27 25 23 23 23 23 22 22 21 21 21 21 21 19 19 16 15 15 15 15 14 14 14 13 13 12 11 11 9 10 13 25 53 69 61 60 57 42 33 39 40 33 43 66 76 88 96 83 69 67 68 67 62 59 62 68 75 79 80 77 75 72 67 57 39 20
19 18 17 16 16 16 16 16 17 17 17 17 17 17 16 15 15 14 14 14 15 15 15 16 16 16 16 17 25 27 28 28 24 23 23 22 21 18 18 18 19 20 20 20 20 21 21 22 21 20 19 18 16 15 14 14 13 13 12 11 11 10 13 39 67 64 57 60 48 38 42 39 32 41 61 67 74 83 73 62 62 64 66 63 60 64 71 79 83 85 85 84 82 75 68 59 39
19 19 18 17 16 16 16 16 16 17 16 17 17 16 16 15 14 13 13 14 15 16 16 17 17 16 16 19 28 31 28 25 22 21 21 21 19 16 17 19 21 22 24 26 28 31 31 30 26 23 23 22 20 17 15 15 14 14 13 13 12 11 11 24 52 58 55 58 42 42 54 45 40 42 46 56 62 62 55 54 60 64 68 66 64 67 72 80 85 88 90 89 86 83 80 76 61
19 19 18 17 17 17 17 17 17 17 17 17 17 17 16 14 14 14 14 14 16 17 17 18 18 17 18 20 26 28 25 22 19 20 22 21 18 16 18 20 22 25 28 32 36 40 39 34 29 25 24 23 22 19 17 16 15 16 14 15 14 13 13 14 29 41 56 64 46 52 62 46 47 40 35 54 60 55 53 53 58 66 73 71 69 73 75 81 86 88 91 91 89 88 86 82 75
20 18 17 17 16 17 17 18 18 17 17 18 18 18 16 14 14 15 15 14 15 17 18 18 18 18 19 19 20 21 20 19 17 20 24 21 17 17 19 21 24 26 31 36 41 45 42 38 32 28 27 24 22 18 16 16 15 16 15 16 15 14 15 13 17 25 39 47 42 59 62 46 53 47 38 52 53 55 62 60 59 63 69 73 76 80 80 82 87 88 89 93 94 93 89 83 85
20 19 19 18 17 17 18 18 19 19 19 18 18 16 15 14 14 15 15 14 14 15 16 17 17 18 20 20 19 18 18 17 16 18 22 20 17 19 20 22 25 27 33 39 44 46 45 43 38 33 32 29 27 22 15 12 13 13 13 13 13 12 13 13 14 15 18 21 22 39 47 45 60 61 53 56 55 58 63 64 64 59 61 70 77 85 87 85 87 90 89 91 95 97 95 90 89
20 21 23 24 21 19 19 20 21 22 22 21 20 18 15 14 15 14 15 15 14 13 15 15 16 16 19 21 20 19 18 16 16 18 19 19 18 20 20 22 26 29 34 41 45 47 47 47 42 37 37 33 32 31 21 13 12 13 12 12 12 12 11 11 13 13 14 15 13 18 27 35 53 65 61 58 60 56 50 55 59 58 61 67 76 87 91 88 84 85 84 87 92 94 98 97 89
21 22 23 26 27 26 24 25 25 24 24 23 22 20 16 14 16 15 14 15 15 15 16 16 16 17 18 20 20 19 18 15 16 19 19 18 18 20 22 23 27 29 34 41 45 46 47 48 44 40 40 37 36 39 32 18 13 15 16 15 13 13 13 12 13 13 14 15 14 14 17 23 39 63 64 54 54 51 48 55 63 70 68 62 71 82 86 91 89 85 83 86 92 92 95 97 92
21 22 22 24 26 27 26 27 27 25 25 23 21 21 18 17 18 17 16 16 16 16 17 17 17 18 19 20 19 19 18 15 18 22 20 19 20 22 24 25 28 30 34 40 44 45 46 47 44 41 41 41 41 47 43 25 16 17 17 17 17 15 16 15 15 15 15 15 15 14 14 15 21 40 49 42 42 43 44 53 66 80 76 67 77 82 80 89 94 94 91 91 94 90 92 99 99
21 24 28 28 26 26 26 27 27 26 24 23 21 20 19 18 19 19 18 18 17 17 17 17 17 17 20 22 21 20 18 19 23 23 20 19 21 22 24 26 27 30 33 38 42 44 46 45 44 42 41 43 44 50 51 32 18 18 19 18 19 18 17 17 16 16 15 14 14 14 13 13 11 16 22 23 25 26 30 44 59 74 82 83 86 83 80 84 87 91 94 95 96 90 88 97 102
25 29 33 33 31 28 28 30 30 28 25 24 22 20 19 18 18 19 19 18 17 17 17 17 18 18 19 21 20 20 20 22 24 22 19 20 22 22 23 25 26 30 34 38 43 45 47 45 42 41 41 44 46 52 53 38 21 18 20 19 19 19 17 17 16 15 15 14 14 13 12 12 12 11 12 15 17 18 33 61 74 78 87 91 88 84 86 89 86 86 90 93 95 93 89 88 90
32 33 35 34 33 30 30 31 31 29 28 26 25 24 23 21 19 18 18 19 18 17 17 18 19 19 19 19 18 20 21 22 22 20 20 20 22 22 23 24 25 30 36 42 48 51 50 46 42 42 43 44 49 54 54 42 25 20 21 20 19 20 18 18 18 16 16 15 14 14 13 12 12 11 11 13 16 19 37 65 81 85 88 89 88 87 90 93 87 81 83 88 93 96 96 91 85
36 36 35 32 32 33 33 31 30 29 28 27 27 27 26 25 23 20 18 18 17 17 17 18 20 20 20 19 18 20 21 21 20 20 21 21 22 23 23 24 25 29 35 40 46 51 50 46 43 44 45 46 50 54 56 47 31 21 22 22 19 20 19 18 18 18 17 16 15 15 14 14 13 12 12 12 13 16 24 38 54 67 71 70 74 80 84 87 84 75 74 81 90 96 97 97 94
38 37 34 31 33 36 34 30 28 27 27 27 26 27 26 25 25 23 21 20 19 19 17 17 20 20 20 20 19 20 21 20 20 21 22 23 22 23 23 24 25 29 34 38 43 47 46 45 45 46 48 49 51 54 55 51 38 24 22 22 21 21 20 18 18 18 17 17 16 16 15 14 13 13 13 13 13 13 14 18 23 31 36 39 47 61 69 72 73 71 69 72 82 94 97 97 99
39 39 35 34 36 35 31 28 26 26 27 26 25 31 31 25 24 25 23 23 23 23 22 20 20 21 22 23 22 21 22 21 21 22 22 24 23 24 24 23 26 30 32 36 42 45 46 46 47 47 51 51 51 55 56 51 42 29 22 22 22 21 21 20 19 18 19 19 20 19 18 17 15 15 14 14 14 13 13 13 13 14 16 17 22 33 41 44 48 51 52 52 59 77 89 93 97
37 38 35 36 35 30 27 27 27 29 30 29 28 34 35 27 25 26 24 24 25 25 26 24 23 24 25 26 26 25 24 23 24 24 24 25 24 24 24 24 27 30 30 34 39 42 44 45 46 47 52 53 53 59 57 50 45 33 24 24 23 23 23 23 22 21 22 24 24 24 22 21 20 18 17 16 15 15 14 13 12 11 11 12 12 14 16 19 20 22 25 26 29 40 53 64 73
34 36 37 39 34 28 27 27 30 32 31 31 30 31 33 30 27 26 25 24 24 24 24 24 23 24 22 23 25 24 24 23 23 24 25 26 25 24 24 25 29 31 29 33 36 38 41 42 44 47 51 52 55 63 60 52 46 35 26 25 24 24 25 25 26 26 27 28 29 29 26 24 23 21 20 19 18 17 16 15 14 12 11 11 10 10 11 11 11 11 11 11 11 12 15 21 29
34 37 39 38 32 29 29 28 30 30 30 30 29 29 34 35 28 24 23 21 23 25 23 24 24 23 21 20 21 23 23 22 22 23 22 23 24 24 23 26 31 32 30 33 35 36 39 40 42 46 48 50 56 63 63 57 47 33 26 27 26 26 27 28 30 30 32 33 32 31 29 26 24 23 22 21 21 20 19 18 17 16 14 12 11 10 10 9 9 9 8 7 7 6 5 5 5
36 38 38 35 33 31 29 29 29 28 30 29 27 28 33 35 26 21 23 24 26 28 25 26 25 23 23 21 21 22 22 22 22 21 19 20 21 22 24 27 31 31 30 34 37 38 38 39 42 44 47 52 58 60 57 53 43 29 27 29 27 27 29 31 34 35 36 35 32 29 27 25 23 22 21 21 21 21 21 21 20 19 18 17 15 13 11 10 9 8 8 7 7 6 6 5 4
36 36 35 32 33 30 29 31 27 31 39 32 25 27 30 32 26 22 28 29 27 27 25 25 24 22 22 21 21 21 21 21 21 20 20 19 20 22 25 28 29 29 31 34 37 39 39 38 41 44 48 53 56 55 50 43 35 28 29 33 30 28 30 34 37 38 39 35 30 25 22 20 19 18 19 19 19 20 20 20 20 20 20 19 19 17 16 15 13 12 11 10 9 9 8 6 5
35 36 35 32 31 28 29 30 26 37 49 35 24 27 29 31 28 26 30 29 26 26 25 24 23 22 21 20 20 20 20 20 19 20 21 21 23 24 26 29 29 28 30 33 36 39 38 37 39 42 46 48 51 52 45 36 31 29 30 34 33 31 32 35 37 39 39 33 28 24 20 19 17 16 16 16 17 17 18 19 19 20 19 19 20 20 19 18 17 17 16 16 16 15 15 13 12
34 35 35 31 32 35 40 42 37 41 43 31 26 30 29 28 27 29 31 28 26 25 24 23 23 23 21 20 20 20 19 19 19 21 23 23 24 25 26 28 29 28 29 31 35 37 37 36 37 38 40 43 47 47 40 33 30 29 30 32 33 32 31 32 34 34 31 26 23 23 22 21 19 17 15 15 15 15 16 16 17 17 18 18 18 19 19 19 18 17 17 18 18 18 19 19 18
31 32 32 32 39 50 57 57 48 41 35 29 30 31 29 27 28 32 31 26 26 25 23 23 22 23 22 20 20 19 19 19 20 21 23 24 24 25 27 28 28 28 29 31 33 35 36 35 35 36 38 40 42 41 37 33 31 30 30 30 30 31 30 29 29 25 22 21 22 23 23 22 20 18 17 16 15 15 15 15 15 16 16 16 16 16 17 17 17 17 16 16 16 17 17 18 18
28 30 29 28 32 40 48 48 40 36 34 34 35 34 32 32 34 34 30 27 28 27 25 23 21 22 22 22 21 19 19 19 20 21 23 25 26 26 27 28 28 28 30 32 33 34 35 35 34 34 36 39 40 38 37 35 33 32 32 32 30 29 29 27 24 22 21 22 24 24 24 25 24 22 20 19 17 16 16 16 15 16 16 16 16 15 16 16 16 16 15 15 15 15 16 16 16
27 27 27 26 25 26 33 35 31 30 32 36 39 36 33 34 35 33 30 30 29 27 26 24 22 21 21 22 22 20 19 19 19 21 23 25 26 26 27 28 28 29 31 32 32 33 34 34 34 34 35 38 40 42 43 46 47 39 31 32 32 30 30 27 24 24 25 25 27 28 27 27 26 25 23 22 20 18 17 17 16 16 17 18 18 19 18 18 17 17 16 14 13 13 13 13 14
25 25 24 25 24 25 29 32 35 36 36 36 34 32 34 35 35 35 32 32 30 27 26 24 21 20 19 19 22 22 21 19 19 21 23 25 26 26 27 28 29 30 31 31 32 33 33 34 35 34 35 37 41 46 49 55 62 54 38 33 33 32 30 28 27 28 28 28 29 31 32 32 30 28 25 23 22 20 18 17 17 17 17 18 19 20 21 21 21 20 19 17 16 15 13 12 12
24 24 25 25 25 28 28 31 42 48 49 47 35 28 32 34 35 35 33 31 29 27 26 24 22 21 20 19 20 22 22 20 20 21 22 25 26 27 28 29 31 31 31 32 32 33 33 34 35 36 39 42 44 49 51 55 61 58 45 34 33 35 33 30 30 31 30 29 31 34 36 37 37 35 31 26 23 21 21 19 17 16 17 17 17 18 19 20 20 21 20 19 19 18 17 15 13
24 24 27 28 30 35 32 33 43 46 54 64 50 33 32 31 30 32 31 30 29 28 27 27 26 25 24 23 22 23 24 23 22 23 23 24 25 28 29 29 31 32 32 32 32 33 33 34 36 38 41 44 45 47 52 58 58 55 51 42 33 33 35 33 31 32 31 31 33 36 38 40 41 41 40 36 29 23 21 21 20 18 17 16 15 15 16 16 17 17 18 18 18 18 18 18 17
25 24 28 28 28 34 34 36 39 38 55 71 57 39 35 29 28 30 30 30 28 28 28 28 29 28 27 29 28 28 29 29 28 29 29 28 26 28 30 30 30 31 32 32 32 34 34 36 39 39 40 44 46 45 47 54 58 60 61 52 37 31 34 35 34 32 33 33 34 38 40 41 43 44 44 43 38 30 23 20 20 20 19 17 16 15 15 14 14 14 14 14 15 15 16 16 16
28 26 28 28 28 30 31 34 32 33 57 76 65 49 38 29 32 34 32 31 29 28 28 27 30 30 30 32 32 32 33 33 33 33 33 33 32 32 33 32 32 32 33 32 32 33 34 37 40 41 43 45 46 48 48 48 54 61 59 49 40 35 32 34 37 35 34 34 37 40 42 43 44 45 47 47 45 40 33 25 20 19 20 20 19 18 17 16 15 14 13 12 12 12 13 13 13
31 30 31 30 30 30 32 38 34 29 43 57 58 54 41 31 34 33 29 32 31 30 29 29 31 31 30 31 30 31 32 33 35 35 35 35 35 36 36 36 36 37 37 35 34 36 37 40 44 45 47 46 46 52 52 45 48 60 60 51 47 45 39 35 35 37 36 35 38 42 44 45 45 45 46 47 48 47 44 37 28 21 18 19 19 19 19 18 18 17 15 14 13 12 12 13 12
Wind_Speed
15 16 15 14 13 13 13 12 10 11 11 11 12 10 8 8 7 5 3 2 2 6 8 7 7 7 9 10 9 11 12 7 7 8 4 4 6 9 9 7 7 8 9 10 10 11 11 10 10 10 9 9 8 6 4 3 3 2 1 1 2 3 4 5 5 5 5 4 3 2 1 1 3 4 4 3 3 3 3 4 6 10 13 13 12 10 8 8 12 13 14 19 23 23 24 27 29
15 15 15 14 14 14 15 13 11 11 12 11 11 11 10 10 9 6 4 2 2 5 7 7 6 6 6 5 5 8 11 6 4 7 4 3 6 8 9 9 9 9 10 10 11 11 11 10 10 10 9 9 8 6 4 4 3 2 3 3 4 4 4 3 3 3 3 3 2 1 2 3 3 4 4 5 6 6 4 3 5 8 11 13 12 10 9 9 11 12 14 19 24 24 24 26 29
14 13 14 14 15 15 15 15 13 12 12 8 8 10 10 10 10 8 7 6 6 6 6 7 6 6 6 5 5 8 9 7 6 7 4 4 5 7 8 9 11 11 11 11 12 12 12 11 10 11 10 9 8 6 5 4 4 4 4 5 5 5 4 3 2 1 1 1 1 1 3 3 4 4 4 6 7 7 6 5 4 7 9 11 11 10 10 10 12 12 13 19 24 24 24 25 28
12 12 13 14 15 15 15 16 16 15 11 5 5 9 11 9 8 9 10 11 10 8 7 7 7 9 8 6 6 7 7 7 8 7 5 6 6 7 7 9 11 12 13 12 13 12 12 11 11 11 10 10 9 7 6 5 5 5 5 6 6 6 5 4 3 2 2 3 3 3 3 4 4 3 4 5 4 5 5 6 6 6 9 10 10 11 10 10 12 11 12 19 24 24 24 25 28
12 12 13 15 15 15 15 16 17 19 13 5 5 8 8 8 8 8 11 12 11 10 9 7 9 9 7 6 7 7 6 7 7 6 6 5 4 5 7 9 11 12 13 13 13 13 12 11 11 10 10 9 9 7 6 6 6 6 6 7 7 7 6 6 5 4 4 4 3 3 3 3 4 3 3 3 1 3 4 6 7 7 9 10 10 10 10 10 12 12 12 19 25 25 25 25 27
12 13 13 14 15 15 15 16 18 19 14 7 5 6 5 5 4 2 6 11 12 13 12 9 8 4 5 7 8 8 7 7 6 5 5 4 4 5 8 10 11 12 13 13 13 13 13 11 10 10 9 9 8 8 7 6 6 6 7 7 8 8 8 7 7 6 5 4 3 3 3 3 3 3 4 3 1 2 3 7 8 8 9 9 8 9 10 9 11 13 13 18 25 25 25 25 26
13 13 14 15 15 15 17 19 20 18 13 9 7 6 6 5 4 3 2 9 13 14 12 9 7 3 4 5 7 7 6 7 5 5 5 5 5 7 9 10 11 12 12 12 11 12 12 11 10 9 9 8 8 8 7 7 7 7 7 7 8 8 8 8 8 7 6 5 4 3 3 3 2 3 5 4 2 2 5 8 8 8 10 9 8 8 9 9 10 14 15 18 24 26 25 24 25
13 14 14 15 16 16 18 21 21 19 14 10 11 9 8 7 7 6 6 10 13 13 11 9 6 3 3 2 4 5 4 4 5 6 6 7 7 8 10 11 11 11 11 11 10 10 10 10 9 9 8 8 8 8 8 7 7 7 7 7 8 8 8 8 8 8 7 6 5 4 4 4 4 4 5 6 5 4 6 8 9 10 11 11 10 8 9 9 9 13 16 18 23 26 25 24 24
14 14 15 15 17 18 19 21 20 20 16 11 13 14 10 10 9 10 12 12 12 11 9 7 6 4 3 2 2 3 2 2 4 7 7 8 10 10 11 11 11 11 10 10 9 9 9 9 8 8 7 7 8 8 8 7 6 7 8 7 7 8 7 7 8 8 8 7 6 6 6 5 6 7 7 7 7 6 6 8 10 12 12 13 12 9 8 8 8 11 15 18 22 25 25 24 23
14 15 15 16 17 19 21 21 19 18 15 11 14 18 15 13 12 12 13 14 14 12 10 7 6 6 4 4 4 3 3 3 5 6 7 9 10 10 10 11 11 11 10 9 8 8 8 8 8 7 7 7 8 8 8 7 7 7 7 7 7 7 7 7 8 9 9 8 7 7 8 7 7 9 9 7 7 7 7 8 11 13 12 11 11 10 9 7 7 9 14 19 22 25 26 24 23
15 15 15 16 18 20 21 21 19 16 13 11 12 19 19 18 17 15 15 17 16 14 12 9 8 7 5 7 7 5 4 4 6 7 7 7 9 9 10 10 10 11 10 9 8 7 7 7 7 7 7 8 8 8 7 7 7 7 6 7 7 6 7 8 8 9 9 9 9 9 10 9 9 9 8 7 7 8 8 8 10 13 13 12 10 10 10 8 7 8 11 18 23 25 26 25 23
15 16 16 17 19 20 20 19 17 15 12 11 9 15 22 25 24 20 19 19 18 16 15 11 10 7 8 10 8 7 6 5 6 8 8 6 6 7 9 10 9 9 9 8 8 7 7 7 6 6 6 7 7 7 7 7 7 7 7 7 7 6 6 8 8 7 9 9 10 11 9 9 9 9 8 7 7 7 8 8 9 12 14 14 13 11 11 10 8 8 9 16 23 26 27 26 24
15 16 16 17 18 19 19 18 14 11 8 6 6 14 24 29 27 21 20 20 19 18 16 13 12 10 10 10 8 7 7 6 6 9 8 6 5 5 8 9 9 8 8 8 8 8 7 6 6 6 6 6 7 7 7 7 8 8 9 9 8 7 6 8 8 8 9 11 11 10 8 7 8 7 6 6 8 8 8 7 8 11 13 14 14 12 12 11 9 9 8 12 22 26 27 26 25
15 16 17 17 18 18 18 15 11 7 5 5 6 14 24 28 27 21 20 21 21 20 17 15 14 11 10 9 7 8 8 7 7 9 8 6 4 5 7 9 9 9 8 8 7 6 5 5 5 5 6 6 7 7 7 7 8 9 10 10 9 7 6 8 9 9 10 11 10 8 6 5 6 5 4 6 9 9 9 7 7 9 13 13 12 12 11 11 10 10 9 10 20 25 27 26 25
16 17 17 18 18 17 15 11 7 4 4 5 9 14 21 23 25 22 22 21 21 21 19 18 16 11 10 9 7 7 9 8 8 8 7 5 4 5 7 8 9 8 7 5 4 3 3 4 4 5 6 7 7 7 8 8 9 10 11 10 10 8 7 8 9 10 10 11 10 8 6 4 5 4 3 7 9 8 8 8 8 10 12 12 11 11 9 9 10 11 10 9 17 24 26 27 25
17 17 17 18 18 16 12 8 6 4 3 5 7 12 16 18 23 23 21 21 20 22 21 19 17 14 11 8 5 8 11 9 9 8 6 6 4 5 6 8 8 7 5 4 3 2 2 3 3 5 6 7 8 8 8 8 9 10 11 11 10 8 8 9 9 10 11 11 10 8 5 4 4 3 4 7 8 8 8 7 9 10 11 11 10 9 8 7 9 12 11 9 15 23 26 26 25
18 17 17 18 18 14 11 7 5 2 4 2 4 7 10 14 22 23 20 22 23 21 21 19 18 16 12 10 10 11 12 11 9 8 8 8 5 5 7 8 7 6 4 3 2 1 1 3 4 6 7 8 9 9 8 9 10 11 11 11 10 9 9 10 10 11 11 11 9 7 4 5 4 2 4 6 7 8 7 6 7 9 10 10 10 8 6 5 9 12 11 10 14 21 25 26 25
18 18 18 18 16 12 10 6 2 4 7 3 2 2 6 12 19 23 22 23 25 21 18 19 18 15 13 13 12 12 14 12 9 10 10 8 6 7 8 7 5 3 2 2 2 1 2 3 5 6 7 9 9 10 10 10 11 11 12 11 10 9 10 10 11 12 12 12 10 7 5 5 4 3 4 5 7 6 6 6 6 8 9 9 10 8 4 3 7 11 12 10 12 20 24 25 24
17 18 19 18 14 11 9 6 2 6 9 7 1 2 3 7 12 20 24 24 25 24 19 20 19 16 14 14 11 12 15 12 11 11 9 8 8 8 8 5 3 3 3 3 3 3 4 4 5 6 8 9 10 10 11 12 13 13 13 12 10 10 10 11 12 12 13 12 10 8 6 6 5 5 5 5 6 5 7 8 7 8 9 8 9 7 2 1 4 10 12 10 10 16 22 24 24
17 18 19 16 13 11 9 7 0 5 8 9 2 2 3 5 7 14 23 23 23 23 20 19 17 15 14 12 10 13 15 13 12 11 9 10 9 9 9 6 5 5 4 4 4 5 6 6 7 7 8 9 10 11 12 13 14 15 15 13 11 10 11 11 12 12 12 12 10 9 8 7 7 6 6 6 5 5 7 9 8 8 10 8 6 4 0 2 2 7 11 11 9 13 19 23 24
16 18 17 14 12 12 10 7 3 3 6 9 4 2 4 6 7 11 17 17 18 18 15 14 10 10 11 10 11 14 15 13 12 10 9 9 9 9 9 7 6 5 5 5 6 8 8 8 9 9 9 10 11 11 12 13 14 15 15 13 12 13 12 11 12 13 12 11 10 9 10 8 8 7 7 7 6 7 7 7 8 8 10 8 6 5 2 2 2 3 8 11 10 11 15 20 23
16 16 16 14 13 12 11 7 5 3 3 6 4 2 5 7 7 10 11 10 13 12 8 9 6 4 5 7 10 13 13 12 11 8 7 8 9 8 6 5 4 4 5 6 8 9 10 10 10 10 11 11 11 11 12 12 13 14 14 13 13 14 14 13 13 13 12 12 10 9 10 9 9 9 8 7 7 9 8 7 8 9 10 8 6 6 4 3 3 2 5 9 10 10 11 16 21
16 15 15 13 12 11 10 6 5 4 1 4 4 4 7 8 9 10 8 8 9 7 6 6 6 4 3 5 7 9 8 8 9 7 6 8 9 7 5 4 3 3 5 7 9 11 12 11 11 11 12 12 12 12 12 12 12 12 12 12 12 13 13 14 14 14 13 13 12 11 9 9 9 9 8 8 8 10 9 9 10 10 8 6 4 4 5 5 4 3 3 7 9 9 10 13 17
15 14 12 10 11 11 9 7 7 6 4 1 1 4 8 9 10 10 8 10 9 7 8 8 8 7 6 7 5 4 5 6 8 7 6 8 8 8 8 7 4 4 6 8 10 13 14 13 13 13 12 12 12 12 12 12 12 12 11 10 10 10 10 12 13 14 15 14 13 11 10 10 10 9 9 9 9 11 11 12 12 11 8 6 4 3 6 8 6 5 4 6 8 8 9 11 14
13 12 10 10 11 12 11 10 8 6 6 4 1 3 7 7 10 11 9 11 10 8 8 8 9 8 8 6 4 5 6 8 9 7 5 5 6 7 8 9 9 8 9 10 12 15 16 15 14 14 13 12 12 12 12 12 12 12 12 10 10 9 9 10 11 12 15 15 13 11 11 11 10 9 10 11 11 11 12 13 13 12 11 8 5 4 5 8 10 11 8 7 7 7 8 10 13
11 11 10 11 11 12 11 9 7 5 7 6 3 2 6 6 8 9 8 10 9 8 8 8 8 8 7 6 6 7 8 9 8 7 6 4 4 5 7 10 11 13 13 14 15 17 18 17 14 13 12 12 12 12 12 12 13 12 12 12 11 11 11 11 11 10 11 14 15 14 13 12 11 10 11 12 13 12 14 15 14 14 14 12 10 9 9 8 10 12 11 9 6 6 7 9 12
9 9 9 9 10 10 9 8 6 5 6 5 3 5 7 7 8 9 9 10 10 10 10 10 9 8 7 7 8 9 9 9 8 7 6 5 5 6 8 11 13 16 17 17 18 18 17 15 13 11 11 12 12 12 12 13 13 13 12 12 11 11 12 12 12 11 9 11 14 15 13 11 11 13 13 14 13 12 13 16 16 15 16 15 14 14 13 12 10 10 11 10 7 5 5 7 10
7 6 6 6 8 8 8 8 7 6 5 4 5 8 9 8 8 9 10 11 11 12 13 12 11 10 9 9 9 10 10 10 9 7 6 5 6 7 9 11 13 14 16 17 16 14 12 10 9 9 9 10 12 13 13 13 13 13 13 12 11 11 12 13 13 12 12 12 12 13 12 10 13 16 15 14 13 12 14 16 17 17 17 17 16 15 13 11 9 9 9 10 9 6 4 5 8
6 5 6 7 7 6 7 7 8 6 5 6 8 11 10 9 9 11 12 13 13 14 15 14 12 10 10 10 10 10 11 10 9 7 6 6 7 7 8 8 9 9 10 10 9 8 9 10 11 11 10 10 11 13 14 14 14 14 14 12 11 11 12 14 15 15 15 15 15 14 13 12 15 18 16 15 16 14 15 17 19 19 18 19 17 15 12 9 8 7 7 8 9 8 6 5 6
4 5 7 8 5 3 7 8 7 7 7 8 10 12 12 10 12 12 11 13 15 15 16 14 11 10 10 10 11 11 11 9 8 7 7 7 7 6 7 8 7 7 6 6 7 11 14 16 16 16 15 13 13 14 15 16 16 16 15 13 12 12 12 14 17 18 17 18 18 17 16 15 17 19 18 18 19 17 17 19 20 21 20 20 18 15 13 11 9 7 6 5 6 8 8 6 5
5 5 5 5 3 2 5 8 8 8 9 10 10 14 14 12 13 13 9 11 14 14 12 10 9 9 10 11 11 11 9 8 7 8 9 8 6 6 8 8 8 7 7 8 10 12 15 18 19 18 16 15 14 14 16 16 17 17 16 15 13 13 13 14 16 18 18 18 17 17 18 17 17 19 20 21 21 19 20 19 20 21 21 21 19 17 15 13 11 9 7 5 5 6 8 7 7
5 5 3 2 3 2 4 7 8 9 10 11 11 14 15 14 14 12 8 9 13 14 12 11 10 9 10 11 10 9 9 9 9 9 11 8 6 6 8 8 8 7 7 8 9 10 13 18 20 18 16 16 14 13 14 15 16 18 17 16 15 14 15 15 15 16 17 18 19 19 19 18 18 19 20 21 22 22 20 19 21 22 21 22 21 19 17 15 14 11 8 7 7 7 8 8 9
5 4 2 1 2 3 4 5 5 6 7 10 12 15 16 16 16 11 9 9 11 14 15 15 14 11 12 12 10 9 10 10 10 10 10 8 6 6 8 9 9 7 6 7 6 7 11 16 20 19 17 17 16 14 12 12 13 16 16 16 16 16 16 17 17 17 17 18 20 21 21 20 20 20 20 21 21 21 20 19 21 23 23 24 22 20 19 19 17 13 10 10 10 10 10 10 10
3 2 2 1 1 2 2 2 3 4 6 8 11 15 17 16 17 15 13 12 10 10 12 14 15 13 13 15 14 12 12 12 11 10 9 7 6 7 8 9 9 7 5 4 2 4 8 13 18 19 19 19 18 18 16 12 11 12 13 14 14 15 15 16 17 18 18 19 20 22 23 22 21 21 21 21 21 20 20 20 22 23 24 24 21 21 20 20 17 13 12 12 13 13 12 11 12
3 2 2 1 1 1 2 3 5 6 8 10 11 14 15 14 16 18 16 14 11 8 9 12 14 14 14 16 17 16 15 15 12 9 8 8 8 8 8 9 9 7 5 3 2 5 7 10 16 18 19 21 20 20 20 15 12 10 10 11 12 12 13 14 16 17 18 19 19 20 22 22 23 23 23 23 22 22 20 21 21 22 23 23 23 22 20 20 17 15 16 14 14 13 11 12 14
6 4 4 4 4 4 4 7 10 9 10 11 12 13 14 14 15 17 17 15 13 10 9 13 16 17 17 18 18 18 18 16 12 10 11 10 10 10 10 10 10 9 7 5 5 7 7 9 14 17 18 20 20 20 22 19 14 11 9 9 9 9 10 11 13 14 15 16 18 19 19 20 22 23 25 25 25 26 24 23 23 22 23 24 25 22 19 19 17 17 17 14 12 11 9 12 17
9 6 5 6 6 7 7 9 11 11 11 12 13 12 13 15 14 15 16 14 13 12 10 13 15 16 17 19 19 19 19 16 14 13 13 12 12 12 12 12 11 10 9 7 7 8 8 8 13 16 17 19 20 20 22 20 15 12 10 8 7 6 7 8 9 11 12 13 15 16 17 18 18 20 22 24 26 28 27 26 25 24 25 25 24 22 21 20 19 20 19 14 12 10 8 11 16
8 6 5 6 7 8 8 9 10 10 11 12 13 13 12 14 12 11 14 14 14 13 12 12 13 13 13 16 18 19 19 18 17 16 15 15 14 13 13 14 13 11 10 8 8 10 9 9 11 14 16 18 19 19 21 20 16 12 11 9 7 6 6 6 8 8 9 10 12 13 14 15 15 16 18 20 22 26 27 27 27 27 27 26 24 22 22 22 22 23 23 20 16 12 11 10 10
6 7 6 6 7 8 8 9 10 11 11 13 14 14 13 13 12 9 12 15 16 15 14 13 13 12 12 13 15 18 20 19 19 18 17 16 15 14 14 15 15 13 11 10 11 12 11 10 10 11 14 17 18 18 18 20 17 13 13 10 7 6 6 6 7 8 8 9 10 10 11 11 12 13 14 16 19 22 26 28 29 28 28 27 26 23 21 21 22 22 21 19 16 13 15 14 11
7 7 6 6 7 9 10 11 12 12 11 12 15 17 16 14 13 11 11 15 18 18 17 17 15 13 13 14 16 19 21 20 18 18 18 18 17 16 15 15 16 15 13 12 12 13 13 11 10 9 11 15 16 16 17 19 18 14 13 11 8 6 5 6 7 8 8 8 8 9 9 9 10 11 12 13 15 18 22 26 28 30 29 28 27 25 23 22 22 22 18 16 16 17 19 18 15
9 8 8 9 9 10 12 13 14 13 11 11 15 18 19 18 15 13 13 15 18 18 17 19 17 16 17 18 18 20 22 22 21 19 19 20 19 17 16 16 16 15 13 12 12 12 12 12 11 10 9 12 15 16 16 17 17 14 12 10 7 5 4 4 4 5 5 4 4 5 6 7 8 9 10 11 12 14 17 20 23 26 28 28 28 28 27 26 26 25 22 18 18 20 21 21 20
10 9 9 9 10 10 11 13 15 13 11 11 11 11 14 18 18 16 16 16 16 16 15 17 18 19 22 22 22 21 22 24 24 23 22 21 21 20 20 18 17 14 11 11 12 12 13 13 13 12 9 10 14 15 14 15 16 14 11 8 6 4 2 1 1 2 2 2 3 4 4 4 6 7 9 10 10 11 13 15 17 19 22 23 25 27 28 29 29 28 26 24 22 22 22 22 22
10 10 10 9 9 9 10 11 11 8 7 7 7 7 8 15 19 18 18 18 17 16 15 16 18 21 23 24 25 24 24 25 25 25 25 24 23 23 22 20 17 11 7 8 10 12 13 13 13 13 10 10 12 12 13 13 14 13 10 7 6 4 3 3 2 2 3 4 4 5 5 4 4 5 6 8 9 9 10 12 13 15 16 18 19 22 24 25 26 26 26 25 24 25 25 24 24
10 10 10 10 10 9 8 8 7 6 6 6 7 8 9 13 17 17 19 20 19 18 17 17 19 21 23 27 28 27 25 26 26 27 27 26 26 25 22 20 18 10 5 6 7 8 10 11 13 13 11 11 11 11 13 12 12 12 8 5 5 4 3 3 3 4 4 4 6 7 7 6 5 5 5 6 7 8 9 10 11 12 13 14 15 17 18 20 21 21 22 22 23 24 25 25 25
9 9 10 11 11 11 9 7 6 5 5 6 8 9 7 8 13 14 15 16 15 14 12 12 13 15 20 26 31 31 28 26 26 25 24 23 24 24 20 19 18 12 8 8 7 7 7 9 11 12 11 11 10 11 13 11 11 10 6 4 4 4 4 4 4 5 5 6 8 9 10 9 8 7 6 6 6 7 7 8 9 10 11 11 12 14 15 16 17 18 18 19 19 20 22 23 23
7 8 10 12 11 12 10 7 6 5 5 7 9 9 6 6 11 9 6 10 12 10 7 7 10 11 14 21 26 28 28 27 25 19 16 16 16 17 17 17 17 14 11 11 10 9 8 9 11 11 11 12 11 12 12 11 11 9 4 4 4 4 5 5 5 5 6 8 9 10 10 11 10 9 9 8 8 7 8 9 9 9 9 9 10 11 12 13 15 15 16 16 17 17 19 19 20
9 9 10 11 12 12 10 8 7 4 4 8 10 9 7 5 8 4 6 11 12 9 7 10 13 11 9 13 16 21 25 25 22 17 14 14 14 15 17 18 16 13 13 13 13 12 10 9 10 11 12 12 12 10 10 9 9 7 4 5 5 5 5 6 6 6 8 10 10 10 10 10 10 10 10 10 10 9 9 10 10 10 10 9 9 10 10 11 12 13 13 14 14 15 16 16 17
12 12 13 11 9 8 6 6 6 3 3 8 9 8 8 6 5 3 8 12 11 11 11 14 15 10 8 9 9 14 21 22 19 17 15 15 16 16 18 19 16 13 13 13 13 13 11 9 8 9 9 10 9 8 7 7 7 6 4 5 6 5 5 5 7 8 10 10 10 10 9 9 9 9 10 10 10 10 10 10 11 11 11 11 11 10 11 11 12 13 13 13 13 13 14 14 15
14 15 15 10 3 1 3 3 3 4 5 6 5 5 7 9 9 6 8 10 11 14 15 17 17 13 10 9 8 6 10 18 18 17 16 15 16 16 17 18 17 13 10 9 11 12 11 9 7 6 5 6 8 7 4 5 5 5 5 4 6 6 5 5 6 8 9 9 9 9 8 8 8 8 9 10 10 10 11 11 11 11 11 12 12 12 12 12 13 14 14 14 14 14 14 14 14
16 18 16 9 2 3 2 3 1 3 6 6 7 5 5 9 8 6 8 11 13 14 15 18 19 16 13 10 8 6 3 11 17 18 16 14 15 16 17 17 16 12 9 8 9 10 11 10 7 5 4 5 6 4 2 2 4 5 5 5 5 5 4 4 5 6 7 7 8 8 7 7 8 8 8 9 10 10 10 11 11 11 12 12 13 13 13 14 14 15 16 16 16 16 16 16 16
14 16 15 13 9 5 4 3 3 3 3 5 8 5 3 4 3 5 10 11 10 12 15 17 18 17 16 13 9 5 4 5 12 17 18 16 14 15 16 16 15 12 10 9 8 10 11 10 8 6 6 6 5 4 3 2 3 4 4 5 5 5 4 4 4 5 5 6 7 7 8 7 8 9 9 9 10 10 10 11 12 12 12 13 14 14 15 15 16 16 17 18 18 18 18 18 17
13 14 14 15 16 12 7 5 5 4 2 2 6 5 3 4 4 6 8 8 8 11 13 13 15 17 17 17 14 8 4 4 7 13 17 18 17 16 15 14 13 12 12 10 10 10 11 11 10 7 6 6 7 7 7 7 7 6 5 5 5 5 4 3 3 5 6 6 6 7 9 9 9 10 10 10 10 10 10 11 12 13 13 14 15 15 16 16 17 18 18 18 19 19 19 19 19
10 11 13 13 13 11 8 4 3 3 1 3 6 5 4 4 3 3 5 6 8 11 11 13 17 19 17 18 18 13 6 3 4 9 15 18 20 19 17 14 12 12 12 12 12 12 12 13 13 12 11 10 10 11 11 12 14 11 7 6 6 5 4 4 5 6 7 7 7 7 8 9 10 11 11 11 10 10 10 11 12 13 14 15 16 16 17 17 18 18 19 19 19 19 19 19 19
10 9 11 11 10 9 6 2 2 2 1 4 6 7 8 8 6 6 7 9 11 13 13 15 16 16 15 15 15 14 11 8 7 9 13 17 19 21 21 19 16 14 13 13 15 14 14 15 15 17 18 17 16 15 14 14 14 13 11 9 7 7 6 5 7 8 9 8 8 8 8 9 10 11 12 12 11 11 10 10 11 12 14 15 16 17 17 18 18 19 19 20 20 20 20 19 19
13 12 11 11 9 7 5 3 1 1 1 3 4 6 9 10 9 10 12 13 14 13 12 11 10 11 12 11 12 14 14 13 13 11 12 16 18 21 22 21 20 18 17 17 17 17 17 16 17 18 19 18 18 19 20 19 14 11 13 12 10 10 8 8 9 11 10 9 9 9 9 9 10 10 11 12 12 12 11 10 11 11 13 14 15 16 17 18 18 19 19 20 20 20 20 20 20
13 13 12 12 10 8 7 6 4 3 2 2 2 3 4 8 10 11 14 15 15 14 11 9 8 8 8 8 8 9 8 8 10 9 8 11 15 18 21 22 22 20 19 20 20 19 19 18 18 18 18 19 19 19 21 23 19 15 13 14 15 14 12 12 12 12 12 11 11 11 10 11 11 11 12 13 13 13 12 12 12 12 13 14 15 16 16 17 18 18 19 19 19 19 19 19 19
12 12 10 10 9 7 7 7 6 4 3 3 1 2 4 6 8 11 14 16 16 17 14 12 11 10 9 8 7 7 6 4 4 3 3 4 7 10 14 19 22 22 20 20 20 20 20 20 19 19 19 20 19 19 20 23 24 21 14 14 17 18 16 16 15 15 15 14 14 13 12 13 13 13 14 14 14 14 13 13 13 14 15 15 16 16 17 17 18 18 19 19 19 19 18 18 18
12 11 10 10 9 7 4 4 6 6 5 4 3 3 5 8 10 11 14 17 17 18 17 14 13 12 12 11 10 10 9 8 7 6 6 5 5 6 7 10 15 19 21 22 22 21 21 21 21 22 22 22 20 22 22 22 26 26 20 17 19 21 21 20 19 19 18 17 17 16 15 15 15 15 16 17 17 16 16 15 15 15 16 17 17 18 18 19 19 19 19 19 18 18 18 18 18
Wind_Direction
249 250 251 248 247 247 244 243 244 246 246 251 255 260 264 268 262 247 262 284 245 213 208 207 207 207 217 216 217 224 221 248 256 221 232 223 199 189 183 203 207 189 175 162 151 141 138 139 140 144 146 151 154 156 154 160 172 185 219 222 202 182 155 133 116 111 109 115 116 124 126 92 63 30 4 3 7 340 304 260 219 204 203 204 208 214 213 199 191 192 194 187 180 176 175 176 176
250 247 250 250 248 245 243 242 240 245 245 249 259 265 268 266 257 234 223 226 182 204 202 195 200 191 200 213 216 215 214 240 238 214 230 203 197 187 186 206 200 185 179 164 154 146 144 146 146 148 150 156 160 165 171 179 191 204 223 227 220 214 196 168 137 119 115 124 117 88 18 24 28 27 23 25 23 13 349 294 228 203 198 201 207 218 221 205 193 193 196 190 182 177 177 178 178
250 247 250 250 247 243 240 239 236 242 241 243 258 264 266 267 260 237 222 214 196 205 211 203 186 161 172 178 182 193 208 224 202 202 206 183 190 188 190 205 196 183 179 166 157 152 151 153 155 155 154 158 165 174 186 197 208 223 233 236 233 231 225 214 186 141 85 60 41 5 4 7 4 12 32 35 26 17 358 326 274 222 208 211 218 228 230 213 198 196 198 191 183 179 178 180 180
252 249 249 248 244 239 236 234 236 240 236 222 238 259 267 272 265 243 229 214 204 203 204 205 174 149 156 159 165 183 205 208 194 195 189 180 184 191 202 209 195 184 180 169 159 156 157 159 161 163 158 160 170 182 196 207 220 235 244 249 250 249 245 246 249 273 332 347 5 356 345 337 339 359 34 45 31 10 351 321 298 255 234 231 233 236 231 216 204 200 199 190 184 180 180 182 182
252 247 245 244 239 235 233 233 236 240 235 206 226 261 266 261 257 245 228 208 196 186 179 177 158 144 156 170 172 170 179 189 190 187 181 190 192 196 209 207 194 187 183 172 162 159 162 163 164 168 162 165 176 190 204 213 227 241 249 255 260 264 263 266 274 289 313 322 350 2 353 334 330 347 14 40 28 345 335 306 299 279 260 248 241 239 229 213 204 201 199 190 184 181 182 184 184
250 244 241 238 234 233 232 234 238 241 234 203 213 242 230 222 226 243 214 191 178 169 166 170 171 180 194 181 170 157 155 165 172 174 171 184 198 204 202 200 195 191 186 174 166 164 168 167 168 170 165 170 179 192 209 220 233 242 250 257 263 270 273 276 282 295 308 306 325 358 358 341 338 338 338 9 40 321 304 291 287 282 279 266 251 247 238 218 200 196 195 189 185 183 184 186 185
247 240 235 233 231 231 233 237 240 242 232 195 187 202 192 182 147 90 163 169 166 168 174 185 189 200 179 167 166 161 154 149 139 145 155 159 176 195 191 192 196 192 185 175 169 169 172 172 171 169 166 174 185 197 210 225 238 243 253 259 262 265 271 277 284 294 303 300 304 331 336 322 321 317 319 337 353 301 289 286 277 268 274 277 270 261 252 234 202 192 190 187 185 185 186 188 187
244 236 233 231 228 231 235 240 242 242 237 204 184 188 176 162 149 152 179 175 175 180 188 195 183 169 161 168 180 166 157 143 123 134 142 145 163 184 182 184 190 188 182 176 173 173 177 176 175 171 170 183 199 208 211 221 238 246 253 255 260 263 268 274 281 290 296 297 296 302 307 303 301 304 315 322 310 288 294 298 283 265 265 272 274 273 264 246 211 192 188 186 186 187 188 190 190
242 235 232 231 230 232 237 242 244 245 245 225 193 191 180 168 172 185 197 202 200 197 200 198 182 189 197 237 227 189 185 154 126 140 144 147 162 179 179 179 182 180 179 177 176 179 181 180 180 178 181 198 210 216 215 214 224 239 247 247 253 259 267 274 279 288 294 300 300 294 295 303 310 308 312 317 308 294 305 305 287 277 273 271 272 276 276 257 225 196 187 185 187 189 190 192 192
239 234 229 229 232 234 240 243 245 249 251 243 203 193 193 187 194 206 213 215 215 214 211 204 191 200 227 267 267 223 195 160 134 137 146 153 165 179 183 182 181 179 180 180 182 187 189 186 186 188 194 207 217 221 222 212 208 220 232 237 241 250 262 273 283 292 296 300 297 287 290 304 313 309 309 313 309 302 309 308 295 289 284 279 278 276 277 273 242 207 189 185 186 189 191 192 194
235 233 230 229 234 237 244 246 248 253 255 255 216 197 206 215 221 223 221 216 214 217 220 220 212 212 247 269 266 238 203 167 149 137 145 155 166 179 186 190 189 187 185 183 188 196 200 196 195 199 205 214 223 226 225 214 203 202 211 223 230 242 256 270 287 295 293 293 289 282 290 307 310 304 306 307 303 302 302 302 301 297 289 286 286 275 272 278 254 220 196 187 186 188 190 192 194
233 233 231 230 237 241 247 252 253 257 262 264 235 210 218 225 230 227 218 214 211 215 223 226 220 226 261 263 258 243 206 177 168 152 150 157 170 184 191 196 195 195 194 187 190 199 201 200 205 211 217 225 230 234 233 220 208 201 205 215 224 241 258 274 283 283 281 278 280 283 291 303 301 302 313 313 308 303 298 295 297 297 289 284 284 275 269 274 257 227 209 191 187 185 188 191 194
231 230 230 231 239 243 246 254 260 269 265 248 237 224 220 222 227 222 214 214 212 215 220 221 221 233 255 252 243 234 207 191 184 163 158 165 176 192 199 202 196 196 200 192 192 198 198 201 210 218 226 236 240 243 241 225 212 207 210 216 226 243 263 279 275 269 275 272 277 284 286 289 290 306 327 327 321 311 299 290 292 296 290 283 280 275 267 269 260 228 215 195 189 186 185 190 194
227 227 228 230 237 243 246 255 267 275 226 210 258 236 221 221 221 215 211 213 213 214 217 218 223 234 240 241 248 239 220 211 199 176 170 177 189 208 207 206 199 194 196 192 193 196 200 207 213 221 228 239 245 242 237 225 213 211 218 225 233 245 260 276 276 275 278 274 279 283 279 285 289 298 325 320 316 312 300 283 285 297 296 289 277 273 266 261 258 228 214 198 191 189 185 188 195
225 227 228 230 236 241 247 255 258 253 212 242 276 243 227 223 216 212 211 215 215 212 215 218 221 229 227 240 270 253 235 224 202 182 176 185 205 218 212 202 191 184 181 179 182 189 201 212 217 224 231 237 244 242 234 225 216 214 223 235 243 252 261 268 271 271 273 272 278 279 278 298 295 279 301 308 308 314 306 287 285 295 300 298 280 269 263 249 247 227 211 200 192 191 188 187 193
223 226 229 231 236 239 244 245 227 237 283 289 276 240 229 221 213 212 214 217 217 212 214 218 219 223 223 226 232 233 233 216 192 182 170 169 183 209 206 186 172 163 159 157 166 184 207 225 229 229 234 236 240 245 239 230 223 220 227 241 250 252 249 251 255 257 263 270 271 272 282 300 289 277 303 309 320 328 315 298 294 292 296 302 293 277 265 233 228 224 211 199 192 192 191 188 192
222 224 229 233 235 240 241 227 215 270 351 312 252 232 217 211 211 213 215 215 218 218 216 217 217 219 221 209 203 214 218 206 196 184 161 156 166 189 181 165 158 154 153 159 174 197 238 245 247 242 241 241 242 245 245 236 230 228 233 245 254 246 236 244 251 251 260 266 260 260 269 281 280 292 308 318 335 331 319 312 305 294 289 297 303 289 263 215 212 221 213 201 191 193 194 192 192
221 223 229 233 235 242 232 199 154 8 18 17 208 194 199 201 206 211 215 213 215 221 219 219 218 215 215 212 209 207 206 208 199 179 161 158 166 176 169 159 163 170 179 193 203 241 265 261 257 253 250 248 248 246 245 241 236 235 239 246 249 237 230 241 250 252 258 261 256 253 246 254 271 276 289 323 334 328 331 319 305 295 283 288 301 294 268 204 209 221 219 208 193 194 197 195 195
221 225 231 234 235 241 218 177 71 9 17 20 93 161 211 201 199 208 213 213 214 220 220 217 214 212 215 216 213 199 200 207 191 176 165 162 169 177 174 171 197 228 238 228 239 272 280 272 263 259 256 251 250 247 244 242 241 241 243 245 240 229 227 235 244 250 256 259 258 255 245 246 265 273 280 319 333 330 336 317 301 295 277 273 289 288 300 127 212 224 226 217 199 197 201 200 199
221 227 234 234 236 236 203 173 315 348 4 10 6 219 259 220 199 207 211 213 216 217 217 213 215 223 224 221 212 195 196 198 186 179 172 171 177 183 183 190 212 233 240 238 258 282 286 278 270 261 256 251 248 244 241 240 241 242 243 242 233 224 228 233 238 246 253 257 256 254 252 252 264 280 284 295 301 302 315 304 294 291 274 266 268 265 65 87 206 230 237 232 213 203 206 207 204
224 228 234 235 240 232 194 184 244 313 348 360 352 233 238 215 196 200 204 208 209 206 210 217 231 240 230 223 210 195 193 191 185 184 183 188 194 196 201 208 212 224 235 252 272 286 289 281 273 264 258 254 248 244 240 238 238 237 237 234 225 220 224 230 234 240 247 247 250 255 254 253 260 273 283 283 282 284 291 287 281 279 275 272 255 238 201 135 161 227 250 250 237 219 214 215 212
228 231 236 237 246 232 190 200 251 263 338 14 10 272 221 205 192 194 200 207 204 196 206 224 231 232 225 222 209 196 192 189 189 194 200 211 214 214 226 226 218 230 242 262 276 282 283 276 269 264 260 256 251 247 242 238 236 235 234 229 225 222 219 224 229 231 235 238 245 255 254 254 258 268 280 280 279 283 282 276 273 273 279 280 257 235 203 172 178 209 253 260 255 243 230 224 221
235 236 239 241 251 233 186 202 242 237 285 51 19 292 220 204 189 190 202 211 210 204 202 212 215 216 212 203 202 198 194 192 193 193 200 213 222 231 250 250 229 244 258 264 271 275 275 270 263 260 259 258 254 249 245 241 240 238 236 232 229 228 222 222 225 223 228 234 241 250 252 251 255 263 273 272 273 278 275 271 271 273 277 273 253 218 187 172 166 177 239 261 263 259 249 239 231
238 238 236 242 252 234 204 220 225 224 238 147 27 250 213 207 200 201 200 194 206 212 193 194 210 220 217 205 200 205 196 187 185 183 194 211 222 234 252 255 241 265 280 268 271 275 273 268 258 254 254 256 256 252 248 244 242 240 239 235 228 229 229 224 221 223 228 231 234 243 245 243 247 254 257 256 263 271 270 266 265 268 269 260 245 210 203 198 192 201 229 262 265 262 257 250 242
236 237 233 244 247 235 229 227 212 220 230 196 162 222 218 223 223 224 211 199 211 218 203 204 218 229 231 224 222 227 210 190 191 197 207 216 223 238 254 254 254 279 289 276 274 278 275 269 257 250 249 250 253 252 251 248 244 242 240 236 227 224 229 228 225 229 232 231 233 240 241 239 242 248 247 247 255 263 263 262 263 264 262 256 248 238 235 227 232 241 245 264 271 263 259 252 246
231 238 247 254 239 232 237 219 193 209 208 189 176 234 244 253 249 239 225 224 229 226 226 229 239 246 239 231 226 229 221 205 205 209 211 223 240 253 256 257 266 281 289 283 280 280 274 268 258 250 246 246 247 247 249 249 249 248 244 241 235 224 226 230 234 242 241 233 232 236 240 242 245 249 249 250 254 257 259 261 262 262 260 258 257 262 268 255 246 250 253 264 276 267 258 252 246
235 248 261 259 234 235 243 216 185 188 188 181 204 250 265 269 261 252 247 250 246 241 245 247 250 244 230 227 222 220 215 207 207 210 218 241 253 261 263 268 276 282 286 284 281 277 272 269 265 259 253 250 249 247 248 250 252 253 250 250 246 233 230 230 232 247 257 244 236 236 238 242 247 248 250 257 260 259 260 259 259 261 260 260 262 265 266 263 258 259 260 263 273 272 254 248 245
245 270 272 267 252 252 247 214 185 185 193 201 235 258 269 269 264 263 261 256 252 252 254 253 246 232 223 222 218 214 206 200 206 215 227 243 253 263 270 277 280 282 281 279 278 276 277 281 283 280 271 263 260 258 257 257 258 257 255 255 253 245 239 235 237 245 251 250 247 242 237 234 241 243 249 266 271 265 258 255 257 258 256 257 262 263 262 262 264 269 271 269 271 273 259 243 241
250 287 290 297 289 264 234 202 178 189 218 233 249 263 265 264 270 271 265 257 252 252 252 251 242 230 225 216 212 214 207 205 212 220 226 237 258 273 287 296 293 291 289 285 290 303 318 323 322 318 306 293 281 274 269 265 264 263 262 258 255 251 243 235 235 239 240 244 246 238 225 218 231 240 248 264 266 262 259 255 254 254 254 257 258 258 256 255 263 275 283 282 275 268 264 253 240
248 297 301 303 299 233 211 202 192 205 232 247 257 267 265 269 284 285 274 256 247 247 247 243 234 229 224 212 213 216 211 214 224 228 226 243 272 292 308 310 308 319 330 341 350 351 350 348 345 341 331 317 301 288 279 271 266 263 263 260 254 250 244 233 229 231 234 241 243 233 222 218 230 239 243 252 256 259 259 254 254 255 253 254 254 252 247 242 247 260 275 289 290 279 273 267 247
263 296 298 287 268 222 207 209 215 221 239 259 267 272 269 271 288 292 282 257 244 242 241 233 226 225 218 210 215 222 222 228 243 236 227 249 288 309 314 309 310 331 354 9 10 3 359 357 356 354 349 336 315 297 285 277 272 265 262 260 256 250 245 239 232 230 231 238 240 229 224 222 229 238 240 244 248 249 251 251 252 253 249 248 248 247 242 237 236 241 250 263 280 285 286 279 262
289 296 288 251 224 210 197 204 222 233 247 263 266 273 271 271 285 287 277 264 245 240 243 244 243 229 215 215 220 230 235 243 258 246 232 252 299 315 312 307 308 326 355 10 15 5 357 360 358 355 355 353 340 318 296 283 278 272 269 265 261 256 250 245 238 231 228 235 238 230 226 221 221 231 237 241 242 241 244 247 247 247 245 242 239 238 239 238 233 234 243 250 255 260 268 270 263
297 294 286 264 196 179 175 189 221 243 259 266 263 265 266 273 283 280 276 279 258 247 249 253 256 244 225 225 230 239 247 255 266 259 248 263 305 313 307 302 302 318 346 6 19 357 347 354 356 352 351 353 351 345 327 300 287 281 278 273 266 259 252 248 242 234 229 230 233 231 229 224 218 222 230 236 241 243 243 245 245 245 244 239 233 231 236 242 238 239 250 255 257 257 257 254 248
272 275 280 302 252 197 187 204 242 262 285 294 284 271 264 268 276 275 278 282 268 259 262 263 268 263 241 233 238 244 253 264 272 273 269 281 303 303 298 293 293 305 329 354 7 331 331 343 349 350 349 350 351 353 350 331 309 295 286 279 271 263 254 249 243 238 233 230 231 231 231 228 221 219 224 229 233 237 241 246 247 247 246 241 235 230 234 245 245 244 254 258 262 264 264 255 241
248 276 282 276 293 273 273 300 293 287 298 311 308 286 267 260 269 275 278 275 265 265 279 281 279 272 254 242 244 248 255 269 277 277 273 278 290 289 287 285 284 292 304 305 269 286 305 326 341 345 346 349 350 353 355 347 331 315 300 289 278 268 258 249 244 240 237 235 235 236 236 233 227 223 225 228 229 230 235 244 248 250 249 246 244 239 238 246 247 246 247 249 260 266 269 258 238
257 285 296 290 293 294 303 312 310 306 302 306 311 299 274 259 263 267 270 271 260 258 274 282 282 277 262 248 248 251 261 273 272 262 260 266 273 275 276 273 271 278 279 265 252 262 280 310 333 340 343 347 349 353 356 352 342 331 317 301 287 272 259 251 247 243 241 241 241 242 243 242 238 233 232 233 233 233 233 236 241 246 250 251 251 250 252 255 257 255 245 239 255 271 285 267 239
256 276 294 299 301 302 308 316 318 313 305 304 308 305 278 262 261 257 261 263 251 252 266 278 289 289 269 254 253 255 263 269 259 251 255 259 264 267 270 266 264 270 268 258 250 253 267 299 326 335 340 345 347 351 356 352 344 338 331 316 298 279 263 254 250 249 246 245 245 246 248 249 247 243 239 238 235 234 231 231 234 238 246 255 258 260 262 263 263 263 262 255 250 258 286 281 248
250 265 284 301 306 305 310 318 323 317 309 305 305 309 292 274 273 256 248 247 245 254 262 269 289 298 278 261 257 256 260 260 252 249 252 254 260 267 270 267 266 269 264 258 256 255 260 284 317 332 337 342 344 349 355 352 344 339 339 328 310 296 281 270 262 257 254 250 248 248 249 250 250 248 243 239 235 232 228 229 235 237 243 253 261 265 265 265 263 264 274 273 251 244 264 284 278
247 261 275 293 304 304 308 314 316 313 307 302 299 303 301 293 296 279 247 243 248 257 257 256 270 282 276 266 259 254 253 252 249 250 252 253 261 267 269 269 267 261 252 247 251 256 260 274 300 324 335 339 342 347 353 352 346 341 341 338 326 311 293 282 274 268 264 260 257 253 252 251 250 250 246 242 238 233 230 233 238 242 244 249 256 263 265 268 266 260 268 272 256 249 258 272 293
255 264 276 290 302 304 305 306 310 311 304 296 292 292 291 288 291 286 266 254 253 256 255 254 257 263 265 262 257 249 247 250 255 259 259 257 260 263 266 271 268 259 253 248 246 253 259 269 284 303 329 337 339 344 349 351 348 341 342 345 337 314 285 273 271 270 267 265 264 260 257 255 252 251 248 246 243 239 238 238 241 244 247 251 256 262 264 266 269 264 268 274 264 257 261 268 276
263 264 270 277 289 298 303 306 308 309 299 289 289 291 287 280 280 281 276 267 262 261 255 252 255 260 264 261 254 246 245 251 259 262 261 259 260 261 264 270 267 261 264 261 252 253 259 267 277 285 312 333 336 339 342 347 348 340 337 345 339 317 282 258 250 248 250 259 277 275 267 262 257 255 252 249 248 246 245 245 247 248 250 253 256 261 265 266 268 270 273 275 270 264 265 269 270
270 269 269 276 290 297 301 304 305 303 295 288 284 287 285 281 281 280 277 272 267 266 257 251 255 260 264 264 260 253 250 254 256 256 256 257 259 259 261 264 262 261 272 272 261 257 258 260 268 274 293 325 329 333 338 341 345 338 328 336 341 331 334 24 164 173 135 74 19 344 314 286 266 261 259 256 253 250 250 251 252 254 255 255 256 257 262 264 265 267 268 268 267 266 267 270 270
270 270 271 282 293 297 299 299 299 294 286 286 271 256 269 278 279 280 282 278 271 268 263 259 258 260 263 264 262 258 257 259 258 256 254 253 253 252 255 257 256 258 271 274 268 263 261 260 266 269 280 309 314 323 335 334 338 335 323 324 334 333 1 36 50 74 75 54 14 347 332 313 283 265 261 260 259 255 254 254 254 256 258 258 258 257 258 261 262 263 263 262 262 263 264 267 268
271 273 272 279 284 287 293 294 295 284 275 277 266 262 270 274 277 284 285 284 281 276 271 268 264 264 264 261 257 253 254 260 261 261 259 254 249 247 249 252 250 248 246 253 264 268 268 268 272 270 276 296 301 311 326 327 329 331 321 316 325 322 334 357 7 19 24 13 353 337 325 313 295 274 261 258 259 260 259 258 258 258 260 260 259 259 259 260 262 262 262 261 260 262 263 263 263
271 271 268 272 279 280 282 291 292 274 265 265 264 268 268 275 288 293 288 289 301 301 288 279 272 267 263 257 252 247 247 255 257 259 259 254 248 243 244 247 242 238 241 243 245 255 267 273 275 274 278 289 292 301 318 322 326 330 317 300 306 304 308 323 342 349 348 342 334 326 318 310 302 289 275 267 263 265 264 264 265 261 261 262 261 261 261 262 263 265 264 264 263 263 265 265 264
265 263 265 267 272 276 281 290 273 246 245 257 266 262 246 283 298 301 317 322 330 334 321 305 302 294 273 260 255 248 245 250 251 247 243 239 233 228 233 237 233 233 237 238 237 244 261 273 276 277 277 280 283 295 315 324 330 334 314 289 296 297 298 306 319 323 325 324 321 318 314 309 304 296 287 280 274 273 271 269 270 269 265 265 264 263 262 262 264 266 266 266 266 266 267 268 268
260 256 260 263 267 272 278 271 249 236 252 252 263 261 236 272 292 299 356 334 328 335 325 313 316 317 294 270 259 249 245 246 243 231 220 213 205 209 223 225 223 231 234 233 236 241 257 274 276 274 270 270 275 289 313 330 339 340 314 292 297 296 292 291 298 304 310 313 317 319 316 310 306 299 293 288 282 280 279 274 270 270 270 268 266 263 261 260 261 264 265 265 267 268 269 270 270
253 253 254 259 265 266 266 249 220 197 264 260 261 249 217 222 252 298 328 316 318 325 317 315 316 313 303 292 280 256 243 237 228 216 208 203 201 208 217 213 212 229 236 234 238 241 250 264 265 264 263 263 268 281 308 337 351 348 327 302 298 298 292 288 292 298 303 310 318 321 318 314 307 301 296 292 288 285 282 279 273 269 270 269 267 265 262 260 260 262 264 264 265 268 269 271 273
248 247 244 247 270 329 278 252 205 214 248 249 223 194 207 235 252 287 314 313 318 319 317 321 320 312 302 295 308 306 242 220 211 207 203 202 204 207 209 207 209 225 236 234 237 238 242 247 248 253 250 248 257 266 297 354 7 357 346 323 305 303 299 293 292 294 301 314 324 323 322 323 317 308 302 296 292 290 286 282 278 273 271 269 267 266 263 261 261 261 263 265 265 267 269 271 273
244 242 238 228 140 73 294 268 281 265 252 213 190 190 234 249 255 285 319 328 322 317 319 321 318 314 305 287 289 330 296 213 206 204 203 201 204 206 209 212 214 222 234 236 233 232 234 238 242 244 232 229 237 236 244 8 19 8 360 349 329 315 307 303 299 299 310 325 332 331 333 339 335 327 320 310 300 295 291 287 284 281 277 274 271 269 267 265 263 263 263 264 264 264 265 267 269
244 243 242 238 227 215 230 225 195 227 234 182 187 206 246 240 253 301 318 324 318 313 315 315 316 312 307 299 288 297 320 250 213 206 204 199 199 202 205 211 216 221 231 234 229 228 230 232 236 240 234 225 217 211 226 278 338 342 348 353 343 327 308 295 293 300 319 331 335 339 345 348 346 344 339 330 318 308 301 295 290 287 283 281 278 275 274 271 269 267 266 265 267 267 266 266 266
245 244 240 241 243 239 230 227 216 204 166 171 199 211 240 252 280 302 305 304 298 301 303 303 311 311 304 301 295 282 286 287 234 213 204 197 197 199 200 207 212 215 218 218 216 221 226 228 234 243 243 236 235 241 252 260 266 282 314 331 330 322 298 273 276 292 308 322 329 338 350 354 352 351 348 339 331 322 313 304 299 295 291 288 285 282 279 276 273 271 269 268 268 269 270 270 270
237 230 228 235 244 242 232 230 227 189 164 227 222 212 203 212 249 270 267 274 278 283 288 292 303 308 305 300 291 278 264 268 253 227 210 203 203 201 201 202 203 205 206 207 215 222 224 227 231 238 244 249 254 252 253 259 258 256 274 301 306 307 292 259 254 273 289 300 309 324 344 354 355 354 351 345 336 325 318 311 306 300 296 293 289 285 283 280 277 275 274 273 272 271 272 272 273
235 227 227 230 232 232 224 188 89 91 164 240 229 213 193 181 186 206 226 255 267 270 280 291 296 299 299 295 282 266 257 255 259 235 214 212 212 211 211 210 210 214 212 212 220 222 223 228 233 242 250 257 264 261 255 257 257 252 259 278 291 290 278 254 246 255 271 282 290 305 324 338 346 350 349 345 339 328 317 310 306 302 297 293 290 287 284 282 279 277 275 274 274 274 274 274 274
241 244 238 230 225 221 212 180 124 150 240 269 257 228 212 212 224 229 233 251 262 263 267 273 278 282 280 276 266 259 257 259 264 257 229 219 221 224 225 222 221 222 218 216 221 222 225 235 241 247 251 254 261 263 257 254 254 252 254 260 270 275 265 254 246 247 259 270 276 288 303 314 325 335 338 338 336 328 317 306 299 297 294 292 290 288 287 285 283 280 279 277 276 276 276 276 276
238 242 238 234 232 224 208 192 175 178 206 259 293 269 242 241 241 231 233 246 254 252 243 234 242 253 249 241 236 239 242 248 258 265 248 228 228 233 231 227 224 220 216 217 221 226 230 237 241 242 246 251 258 264 265 264 262 257 256 254 257 264 261 253 248 247 253 259 264 275 286 294 304 314 319 323 324 322 318 308 298 292 290 290 289 289 288 287 287 286 284 283 282 281 281 280 280
223 221 219 215 211 202 204 213 211 193 175 166 199 278 273 247 221 211 224 238 243 244 237 225 224 222 214 207 201 202 199 197 208 217 224 222 228 231 227 225 221 216 218 222 222 225 228 230 232 234 241 249 256 265 270 269 263 255 253 253 253 257 257 252 248 246 249 251 255 266 276 283 292 297 302 306 309 311 311 310 303 295 290 289 289 289 289 288 288 287 285 283 283 283 282 282 282
217 218 221 223 227 222 201 214 222 216 211 189 184 225 230 226 225 231 244 243 235 237 235 222 215 216 219 221 224 230 236 237 230 219 219 221 219 217 217 223 220 217 221 226 227 229 232 233 232 231 236 240 246 256 260 265 266 263 259 254 250 249 250 250 248 246 246 249 252 257 265 274 282 286 290 295 298 301 304 305 305 302 297 293 291 291 290 290 288 286 285 283 281 280 279 280 281